Location: Doverdale
(52.2833°N, 2.2000°W)
Time: 03:22:38
(UTC+00:00)

Cosmos 1980 Rocket - Pass Details

Date: 02 March 2021
Orbit: 828 x 851 km, 71.0° (Epoch: 15 April)

Event Time Altitude Azimuth Distance (km) Brightness Sun altitude
Rises 19:09:10 0° 235° (SW) 3,393 6.2 -12.8°
Reaches altitude 10° 19:11:44 10° 242° (WSW) 2,465 5.5 -13.2°
Maximum altitude 19:17:05 41° 312° (NW) 1,210 3.5 -14.0°
Drops below altitude 10° 19:22:29 10° 23° (NNE) 2,488 4.5 -14.9°
Sets 19:25:06 0° 31° (NNE) 3,429 5.1 -15.2°
